Time,TemperatureF,DewpointF,PressureIn,WindDirection,WindDirectionDegrees,WindSpeedMPH,WindSpeedGustMPH,Humidity,HourlyPrecipIn,Conditions,Clouds,dailyrainin,SoftwareType,DateUTC
2013-07-26 00:02:00,84.0,69.0,29.66,SSW,199,1.0,-999.0,61,0.00,,,0.00,,2013-07-26 05:02:00,
2013-07-26 00:12:00,84.0,-99.9,-100.00,East,83,0.0,-999.0,-999,-99.99,,,-99.99,,2013-07-26 05:12:00,
2013-07-26 00:22:00,84.0,70.0,29.66,ESE,104,0.0,-999.0,62,0.00,,,0.00,,2013-07-26 05:22:00,
2013-07-26 00:32:00,84.0,70.0,29.66,ESE,104,0.0,-999.0,62,0.00,,,0.00,,2013-07-26 05:32:00,
2013-07-26 00:43:00,84.0,71.0,29.67,South,187,0.0,-999.0,65,0.00,,,0.00,,2013-07-26 05:43:00,
2013-07-26 00:52:00,84.0,71.0,29.67,SSE,153,0.0,-999.0,66,0.00,,,0.00,,2013-07-26 05:52:00,
2013-07-26 01:02:00,84.0,71.0,29.67,SSE,153,0.0,-999.0,66,0.00,,,0.00,,2013-07-26 06:02:00,
2013-07-26 01:12:00,83.0,71.0,29.66,ESE,118,0.0,-999.0,67,0.00,,,0.00,,2013-07-26 06:12:00,
2013-07-26 01:22:00,83.0,71.0,29.66,SE,128,0.0,-999.0,68,0.00,,,0.00,,2013-07-26 06:22:00,
2013-07-26 01:33:00,83.0,72.0,29.66,SE,138,0.0,-999.0,69,0.00,,,0.00,,2013-07-26 06:33:00,
2013-07-26 01:43:00,83.0,-99.9,-100.00,SSE,164,0.0,-999.0,-999,0.00,,,-99.99,,2013-07-26 06:43:00,
2013-07-26 01:52:00,83.0,-99.9,-100.00,SSE,164,0.0,-999.0,-999,0.00,,,-99.99,,2013-07-26 06:52:00,
2013-07-26 02:02:00,82.0,71.0,29.65,ESE,119,4.0,-999.0,70,0.00,,,0.00,,2013-07-26 07:02:00,
2013-07-26 02:12:00,82.0,71.0,29.65,SSE,149,0.0,-999.0,70,0.00,,,0.00,,2013-07-26 07:12:00,
2013-07-26 02:22:00,81.0,70.0,29.65,SSW,205,4.0,-999.0,70,0.00,,,0.00,,2013-07-26 07:22:00,
2013-07-26 02:32:00,81.0,71.0,29.65,SSE,153,2.0,-999.0,72,0.00,,,0.00,,2013-07-26 07:32:00,
2013-07-26 02:43:00,81.0,71.0,29.65,SSE,153,2.0,-999.0,72,0.00,,,0.00,,2013-07-26 07:43:00,
2013-07-26 02:52:00,81.0,71.0,29.65,SSE,153,2.0,-999.0,72,0.00,,,0.00,,2013-07-26 07:52:00,
2013-07-26 03:02:00,80.0,71.0,29.66,South,177,0.0,-999.0,73,0.00,,,0.00,,2013-07-26 08:02:00,
2013-07-26 03:12:00,80.0,71.0,29.65,SSE,163,1.0,-999.0,73,0.00,,,0.00,,2013-07-26 08:12:00,
2013-07-26 03:22:00,80.0,71.0,29.65,SSE,163,1.0,-999.0,73,0.00,,,0.00,,2013-07-26 08:22:00,
2013-07-26 03:32:00,80.0,71.0,29.65,SSE,163,1.0,-999.0,73,0.00,,,0.00,,2013-07-26 08:32:00,
2013-07-26 03:43:00,80.0,71.0,29.64,SSW,199,0.0,-999.0,74,0.00,,,0.00,,2013-07-26 08:43:00,
2013-07-26 03:44:00,80.0,71.0,29.64,SE,143,0.0,-999.0,73,0.00,,,0.00,,2013-07-26 08:44:00,
2013-07-26 03:52:00,80.0,71.0,29.64,SSW,199,0.0,-999.0,74,0.00,,,0.00,,2013-07-26 08:52:00,
2013-07-26 04:02:00,80.0,71.0,29.64,SSW,199,0.0,-999.0,74,0.00,,,0.00,,2013-07-26 09:02:00,
2013-07-26 04:12:00,80.0,71.0,29.64,SSW,199,0.0,-999.0,74,0.00,,,0.00,,2013-07-26 09:12:00,
2013-07-26 04:22:00,80.0,71.0,29.64,SSW,199,0.0,-999.0,74,0.00,,,0.00,,2013-07-26 09:22:00,
2013-07-26 04:32:00,80.0,71.0,29.64,SSW,199,0.0,-999.0,74,0.00,,,0.00,,2013-07-26 09:32:00,
2013-07-26 04:52:00,78.0,71.0,29.65,SSW,194,0.0,-999.0,78,0.00,,,0.00,,2013-07-26 09:52:00,
2013-07-26 05:02:00,78.0,71.0,29.65,SSW,194,0.0,-999.0,78,0.00,,,0.00,,2013-07-26 10:02:00,
2013-07-26 05:12:00,78.0,71.0,29.65,SSW,203,0.0,-999.0,79,0.00,,,0.00,,2013-07-26 10:12:00,
2013-07-26 05:22:00,78.0,71.0,29.65,SSW,203,0.0,-999.0,79,0.00,,,0.00,,2013-07-26 10:22:00,
2013-07-26 05:33:00,78.0,71.0,29.65,SSW,203,0.0,-999.0,79,0.00,,,0.00,,2013-07-26 10:33:00,
2013-07-26 05:42:00,78.0,71.0,29.65,SSW,203,0.0,-999.0,79,0.00,,,0.00,,2013-07-26 10:42:00,
2013-07-26 05:53:00,77.0,-99.9,-100.00,SW,215,0.0,-999.0,-999,-99.99,,,-99.99,,2013-07-26 10:53:00,
2013-07-26 06:02:00,77.0,-99.9,-100.00,SW,215,0.0,-999.0,-999,-99.99,,,-99.99,,2013-07-26 11:02:00,
2013-07-26 06:12:00,77.0,70.0,29.65,SW,215,0.0,-999.0,80,0.00,,,0.00,,2013-07-26 11:12:00,
2013-07-26 06:22:00,77.0,71.0,29.65,SSW,192,0.0,-999.0,81,0.00,,,0.00,,2013-07-26 11:22:00,
2013-07-26 06:32:00,77.0,71.0,29.66,South,185,0.0,-999.0,82,0.00,,,0.00,,2013-07-26 11:32:00,
2013-07-26 06:43:00,77.0,71.0,29.66,South,185,0.0,-999.0,82,0.00,,,0.00,,2013-07-26 11:43:00,
2013-07-26 06:52:00,77.0,71.0,29.66,South,185,0.0,-999.0,82,0.00,,,0.00,,2013-07-26 11:52:00,
2013-07-26 07:02:00,77.0,71.0,29.66,South,185,0.0,-999.0,82,0.00,,,0.00,,2013-07-26 12:02:00,
2013-07-26 07:12:00,76.0,71.0,29.66,WSW,238,0.0,-999.0,84,0.00,,,0.00,,2013-07-26 12:12:00,
2013-07-26 07:22:00,76.0,71.0,29.66,WSW,238,0.0,-999.0,84,0.00,,,0.00,,2013-07-26 12:22:00,
2013-07-26 07:33:00,76.0,71.0,29.66,WSW,238,0.0,-999.0,84,0.00,,,0.00,,2013-07-26 12:33:00,
2013-07-26 07:43:00,76.0,71.0,29.66,WSW,238,0.0,-999.0,84,0.00,,,0.00,,2013-07-26 12:43:00,
2013-07-26 07:53:00,76.0,72.0,29.65,South,169,0.0,-999.0,86,0.00,,,0.00,,2013-07-26 12:53:00,
2013-07-26 08:02:00,76.0,72.0,29.65,South,169,0.0,-999.0,86,0.00,,,0.00,,2013-07-26 13:02:00,
2013-07-26 08:12:00,76.0,72.0,29.65,South,169,0.0,-999.0,86,0.00,,,0.00,,2013-07-26 13:12:00,
2013-07-26 08:22:00,77.0,72.0,29.66,SSW,206,1.0,-999.0,86,0.00,,,0.00,,2013-07-26 13:22:00,
2013-07-26 08:32:00,77.0,72.0,29.66,SSW,206,1.0,-999.0,86,0.00,,,0.00,,2013-07-26 13:32:00,
2013-07-26 08:43:00,77.0,72.0,29.66,South,171,0.0,-999.0,86,0.00,,,0.00,,2013-07-26 13:43:00,
2013-07-26 08:53:00,77.0,72.0,29.67,SW,221,1.0,-999.0,85,0.00,,,0.00,,2013-07-26 13:53:00,
2013-07-26 09:02:00,78.0,73.0,29.67,SSW,200,0.0,-999.0,84,0.00,,,0.00,,2013-07-26 14:02:00,
2013-07-26 09:12:00,78.0,73.0,29.67,SSW,200,0.0,-999.0,84,0.00,,,0.00,,2013-07-26 14:12:00,
2013-07-26 09:22:00,78.0,73.0,29.66,South,180,2.0,-999.0,84,0.00,,,0.00,,2013-07-26 14:22:00,
2013-07-26 09:32:00,79.0,73.0,29.66,SSW,199,1.0,-999.0,83,0.00,,,0.00,,2013-07-26 14:32:00,
2013-07-26 09:43:00,79.0,73.0,29.66,SSW,199,1.0,-999.0,83,0.00,,,0.00,,2013-07-26 14:43:00,
2013-07-26 09:53:00,80.0,73.0,29.67,SSW,192,0.0,-999.0,80,0.00,,,0.00,,2013-07-26 14:53:00,
2013-07-26 10:02:00,80.0,73.0,29.67,South,173,3.0,-999.0,79,0.00,,,0.00,,2013-07-26 15:02:00,
2013-07-26 10:12:00,80.0,73.0,29.67,South,173,3.0,-999.0,79,0.00,,,0.00,,2013-07-26 15:12:00,
2013-07-26 10:22:00,83.0,73.0,29.67,SSE,163,1.0,-999.0,73,0.00,,,0.00,,2013-07-26 15:22:00,
2013-07-26 10:32:00,83.0,73.0,29.67,SSE,163,1.0,-999.0,73,0.00,,,0.00,,2013-07-26 15:32:00,
2013-07-26 10:43:00,83.0,73.0,29.67,SSE,163,1.0,-999.0,73,0.00,,,0.00,,2013-07-26 15:43:00,
2013-07-26 10:53:00,84.0,73.0,29.66,South,171,5.0,-999.0,70,0.00,,,0.00,,2013-07-26 15:53:00,
2013-07-26 11:02:00,85.0,73.0,29.67,SSW,200,1.0,-999.0,67,0.00,,,0.00,,2013-07-26 16:02:00,
2013-07-26 11:14:00,85.0,73.0,29.67,South,186,2.0,-999.0,67,0.00,,,0.00,,2013-07-26 16:14:00,
2013-07-26 11:32:00,86.0,72.0,29.67,SSE,148,1.0,-999.0,64,0.00,,,0.00,,2013-07-26 16:32:00,
2013-07-26 11:43:00,86.0,72.0,29.67,ESE,118,0.0,-999.0,64,0.00,,,0.00,,2013-07-26 16:43:00,
2013-07-26 11:54:00,86.0,72.0,29.67,ESE,118,0.0,-999.0,64,0.00,,,0.00,,2013-07-26 16:54:00,
2013-07-26 12:02:00,87.0,73.0,29.66,SSW,204,1.0,-999.0,64,0.00,,,0.00,,2013-07-26 17:02:00,
2013-07-26 12:12:00,88.0,73.0,29.66,South,188,0.0,-999.0,62,0.00,,,0.00,,2013-07-26 17:12:00,
2013-07-26 12:22:00,89.0,73.0,29.65,SE,144,2.0,-999.0,59,0.00,,,0.00,,2013-07-26 17:22:00,
2013-07-26 12:33:00,90.0,73.0,29.65,East,101,8.0,-999.0,57,0.00,,,0.00,,2013-07-26 17:33:00,
2013-07-26 12:43:00,90.0,72.0,29.65,SW,223,3.0,-999.0,56,0.00,,,0.00,,2013-07-26 17:43:00,
2013-07-26 12:53:00,91.0,73.0,29.65,South,171,0.0,-999.0,55,0.00,,,0.00,,2013-07-26 17:53:00,
2013-07-26 13:02:00,91.0,73.0,29.65,South,171,0.0,-999.0,55,0.00,,,0.00,,2013-07-26 18:02:00,
2013-07-26 13:12:00,91.0,73.0,29.64,South,191,1.0,-999.0,55,0.00,,,0.00,,2013-07-26 18:12:00,
2013-07-26 13:22:00,91.0,72.0,29.64,SE,125,5.0,-999.0,54,0.00,,,0.00,,2013-07-26 18:22:00,
2013-07-26 13:33:00,92.0,73.0,29.63,South,173,1.0,-999.0,54,0.00,,,0.00,,2013-07-26 18:33:00,
2013-07-26 13:43:00,92.0,72.0,29.62,East,88,2.0,-999.0,52,0.00,,,0.00,,2013-07-26 18:43:00,
2013-07-26 13:52:00,92.0,72.0,29.62,East,88,2.0,-999.0,52,0.00,,,0.00,,2013-07-26 18:52:00,
2013-07-26 14:02:00,92.0,72.0,29.62,East,88,2.0,-999.0,52,0.00,,,0.00,,2013-07-26 19:02:00,
2013-07-26 14:12:00,94.0,72.0,29.61,SE,132,3.0,-999.0,49,0.00,,,0.00,,2013-07-26 19:12:00,
2013-07-26 14:22:00,93.0,72.0,29.61,SSE,151,2.0,-999.0,50,0.00,,,0.00,,2013-07-26 19:22:00,
2013-07-26 14:32:00,94.0,72.0,29.61,NNE,30,2.0,-999.0,49,0.00,,,0.00,,2013-07-26 19:32:00,
2013-07-26 14:43:00,94.0,72.0,29.61,SE,139,2.0,-999.0,49,0.00,,,0.00,,2013-07-26 19:43:00,
2013-07-26 14:52:00,94.0,72.0,29.61,SE,139,2.0,-999.0,49,0.00,,,0.00,,2013-07-26 19:52:00,
2013-07-26 15:02:00,95.0,70.0,29.59,ENE,63,0.0,-999.0,45,0.00,,,0.00,,2013-07-26 20:02:00,
2013-07-26 15:12:00,95.0,70.0,29.59,ENE,63,0.0,-999.0,45,0.00,,,0.00,,2013-07-26 20:12:00,
2013-07-26 15:22:00,96.0,71.0,29.59,SE,127,1.0,-999.0,45,0.00,,,0.00,,2013-07-26 20:22:00,
2013-07-26 15:32:00,96.0,71.0,29.59,ENE,71,0.0,-999.0,45,0.00,,,0.00,,2013-07-26 20:32:00,
2013-07-26 15:43:00,96.0,72.0,29.58,SE,131,2.0,-999.0,46,0.00,,,0.00,,2013-07-26 20:43:00,
2013-07-26 15:53:00,96.0,72.0,29.58,SW,227,2.0,-999.0,46,0.00,,,0.00,,2013-07-26 20:53:00,
2013-07-26 16:02:00,96.0,71.0,29.58,ESE,123,1.0,-999.0,45,0.00,,,0.00,,2013-07-26 21:02:00,
2013-07-26 16:12:00,96.0,71.0,29.57,SW,222,6.0,-999.0,44,0.00,,,0.00,,2013-07-26 21:12:00,
2013-07-26 16:22:00,97.0,71.0,29.57,SE,145,2.0,-999.0,43,0.00,,,0.00,,2013-07-26 21:22:00,
2013-07-26 16:32:00,96.0,70.0,29.57,SSE,158,1.0,-999.0,43,0.00,,,0.00,,2013-07-26 21:32:00,
2013-07-26 16:43:00,97.0,71.0,29.56,SE,134,2.0,-999.0,43,0.00,,,0.00,,2013-07-26 21:43:00,
2013-07-26 16:53:00,97.0,70.0,29.56,East,82,5.0,-999.0,42,0.00,,,0.00,,2013-07-26 21:53:00,
2013-07-26 17:01:00,97.0,70.0,29.56,East,82,5.0,-999.0,42,0.00,,,0.00,,2013-07-26 22:01:00,
2013-07-26 17:11:00,97.0,70.0,29.55,SSE,161,0.0,-999.0,42,0.00,,,0.00,,2013-07-26 22:11:00,
2013-07-26 17:22:00,97.0,69.0,29.55,South,178,1.0,-999.0,41,0.00,,,0.00,,2013-07-26 22:22:00,
2013-07-26 17:32:00,97.0,69.0,29.54,SSW,194,3.0,-999.0,41,0.00,,,0.00,,2013-07-26 22:32:00,
2013-07-26 17:43:00,97.0,69.0,29.54,SSW,194,3.0,-999.0,41,0.00,,,0.00,,2013-07-26 22:43:00,
2013-07-26 17:53:00,97.0,68.0,29.54,SE,138,3.0,-999.0,39,0.00,,,0.00,,2013-07-26 22:53:00,
2013-07-26 18:02:00,97.0,69.0,29.54,SSW,213,0.0,-999.0,40,0.00,,,0.00,,2013-07-26 23:02:00,
2013-07-26 18:12:00,97.0,69.0,29.54,SE,144,2.0,-999.0,40,0.00,,,0.00,,2013-07-26 23:12:00,
2013-07-26 18:22:00,96.0,68.0,29.53,South,180,0.0,-999.0,40,0.00,,,0.00,,2013-07-26 23:22:00,
2013-07-26 18:32:00,96.0,68.0,29.53,South,180,0.0,-999.0,40,0.00,,,0.00,,2013-07-26 23:32:00,
2013-07-26 18:43:00,96.0,68.0,29.52,ESE,107,3.0,-999.0,40,0.00,,,0.00,,2013-07-26 23:43:00,
2013-07-26 18:52:00,95.0,68.0,29.52,SE,128,5.0,-999.0,42,0.00,,,0.00,,2013-07-26 23:52:00,
2013-07-26 19:02:00,95.0,68.0,29.52,ESE,110,1.0,-999.0,42,0.00,,,0.00,,2013-07-27 00:02:00,
2013-07-26 19:12:00,95.0,68.0,29.52,ESE,110,1.0,-999.0,42,0.00,,,0.00,,2013-07-27 00:12:00,
2013-07-26 19:22:00,95.0,69.0,29.52,SSE,155,0.0,-999.0,43,0.00,,,0.00,,2013-07-27 00:22:00,
2013-07-26 19:32:00,95.0,69.0,29.52,SSE,155,0.0,-999.0,43,0.00,,,0.00,,2013-07-27 00:32:00,
2013-07-26 19:42:00,95.0,69.0,29.52,SSE,154,0.0,-999.0,43,0.00,,,0.00,,2013-07-27 00:42:00,
2013-07-26 19:53:00,95.0,69.0,29.52,SSE,154,0.0,-999.0,43,0.00,,,0.00,,2013-07-27 00:53:00,
2013-07-26 20:02:00,94.0,69.0,29.52,SE,137,0.0,-999.0,45,0.00,,,0.00,,2013-07-27 01:02:00,
2013-07-26 20:12:00,94.0,70.0,29.52,SE,146,0.0,-999.0,46,0.00,,,0.00,,2013-07-27 01:12:00,
2013-07-26 20:32:00,92.0,70.0,29.52,SSE,155,0.0,-999.0,49,0.00,,,0.00,,2013-07-27 01:32:00,
2013-07-26 20:43:00,92.0,70.0,29.52,SSE,155,0.0,-999.0,49,0.00,,,0.00,,2013-07-27 01:43:00,
2013-07-26 20:53:00,92.0,71.0,29.51,ESE,119,0.0,-999.0,50,0.00,,,0.00,,2013-07-27 01:53:00,
2013-07-26 21:02:00,91.0,71.0,29.52,ESE,119,0.0,-999.0,52,0.00,,,0.00,,2013-07-27 02:02:00,
2013-07-26 21:12:00,90.0,70.0,29.52,ESE,119,0.0,-999.0,52,0.00,,,0.00,,2013-07-27 02:12:00,
2013-07-26 21:22:00,90.0,70.0,29.53,ESE,119,0.0,-999.0,52,0.00,,,0.00,,2013-07-27 02:22:00,
2013-07-26 21:32:00,89.0,71.0,29.52,ESE,119,0.0,-999.0,55,0.00,,,0.00,,2013-07-27 02:32:00,
2013-07-26 21:43:00,89.0,71.0,29.52,ESE,119,0.0,-999.0,55,0.00,,,0.00,,2013-07-27 02:43:00,
2013-07-26 21:52:00,89.0,71.0,29.52,ESE,119,0.0,-999.0,55,0.00,,,0.00,,2013-07-27 02:52:00,
2013-07-26 22:02:00,89.0,71.0,29.53,SW,220,0.0,-999.0,55,0.00,,,0.00,,2013-07-27 03:02:00,
2013-07-26 22:12:00,89.0,71.0,29.53,SSW,193,0.0,-999.0,55,0.00,,,0.00,,2013-07-27 03:12:00,
2013-07-26 22:22:00,89.0,71.0,29.54,South,186,0.0,-999.0,55,0.00,,,0.00,,2013-07-27 03:22:00,
2013-07-26 22:33:00,89.0,71.0,29.54,South,188,0.0,-999.0,55,0.00,,,0.00,,2013-07-27 03:33:00,
2013-07-26 22:44:00,89.0,71.0,29.54,SE,140,0.0,-999.0,55,0.00,,,0.00,,2013-07-27 03:44:00,
2013-07-26 22:52:00,89.0,73.0,29.55,SSE,168,3.0,-999.0,59,0.00,,,0.00,,2013-07-27 03:52:00,
2013-07-26 23:02:00,88.0,73.0,29.54,ESE,113,3.0,-999.0,62,0.00,,,0.00,,2013-07-27 04:02:00,
2013-07-26 23:12:00,88.0,75.0,29.54,SSE,154,2.0,-999.0,65,0.00,,,0.00,,2013-07-27 04:12:00,
2013-07-26 23:22:00,88.0,75.0,29.55,SSE,151,1.0,-999.0,66,0.00,,,0.00,,2013-07-27 04:22:00,
2013-07-26 23:32:00,86.0,72.0,29.59,NNE,21,3.0,-999.0,64,0.00,,,0.00,,2013-07-27 04:32:00,
2013-07-26 23:43:00,86.0,72.0,29.59,NNE,21,3.0,-999.0,64,0.00,,,0.00,,2013-07-27 04:43:00,
2013-07-26 23:53:00,86.0,72.0,29.59,NNE,21,3.0,-999.0,64,0.00,,,0.00,,2013-07-27 04:53:00,